Flag for Russia Weather past 2 weeks in Astrakhan, Russia

Now
50 °F

Clear.


Feels Like: 48 °F
Forecast: 45 / 69 °F
Wind: 6 mph from East

Location: Astrakhan

Current Time: Apr 27, 2015 at 1:51:28 AM

Latest Report: Apr 27, 2015 at 1:00 AM


Visibility: 10 mi

Pressure: 30.15 "Hg

Humidity: 35%

Dew point: 23 °F

Location of AstrakhanLocation

Historic Weather in Astrakhan — Graph

°F

Astrakhan temperature yesterday

Maximum temperature yesterday: 66 °F (at 1:00 PM)
Minimum temperature yesterday: 48 °F (at 10:30 PM)
Average temperature yesterday: 58 °F

Past Weeks' High & Low Weather Summary

 TemperatureHumidityPressure
High75 °F (Apr 18, 1:00 PM)94% (Apr 14, 8:00 AM)30.18 "Hg (Apr 14, 8:00 AM)
Low36 °F (Apr 15, 4:30 AM)21% (Apr 26, 1:30 PM)29.53 "Hg (Apr 20, 12:30 AM)
Average53 °F58%29.94 "Hg
* Reported Apr 12 1:00 AM — Apr 27 1:00 AM, Astrakhan, Weather by CustomWeather, © 2015

Note: Actual official high and low records may vary slightly from our data, if they occured in-between our weather recording intervals... More about our weather records

Advertising

Astrakhan weather history for previous 24 hours

 ConditionsComfort  
Time TempWeatherWind HumidityBarometerVisibility
1:00 AM
Mon, Apr 27
50 °FClear.6 mph35%30.15 "Hg10 mi
12:30 AM46 °FClear.3 mph43%30.15 "Hg10 mi
12:00 AM48 °FClear.3 mph40%30.18 "Hg10 mi
11:30 PM
Sun, Apr 26
50 °FClear.3 mph35%30.15 "Hg10 mi
11:00 PM52 °FClear.3 mph35%30.15 "Hg10 mi
10:30 PM48 °FPassing clouds.6 mph46%30.15 "HgN/A
10:00 PM50 °FPassing clouds.3 mph47%30.15 "HgN/A
9:30 PM52 °FClear.3 mph41%30.15 "Hg10 mi
9:00 PM52 °FPassing clouds.3 mph41%30.15 "HgN/A
8:30 PM54 °FClear.3 mph38%30.15 "Hg10 mi
8:00 PM57 °FPassing clouds.3 mph31%30.15 "HgN/A
7:30 PM59 °FSunny.1 mph27%30.15 "Hg10 mi
7:00 PM61 °FSunny.3 mph25%30.12 "Hg10 mi
6:30 PM63 °FSunny.3 mph24%30.12 "Hg10 mi
6:00 PM63 °FSunny.6 mph25%30.12 "Hg10 mi
5:30 PM64 °FPassing clouds.6 mph24%30.12 "HgN/A
5:00 PM64 °FPassing clouds.8 mph24%30.09 "HgN/A
4:30 PM64 °FPassing clouds.8 mph24%30.09 "HgN/A
4:00 PM66 °FSunny.8 mph22%30.09 "Hg10 mi
3:30 PM66 °FPassing clouds.8 mph22%30.09 "HgN/A
3:00 PM66 °FPassing clouds.8 mph22%30.09 "HgN/A
2:30 PM66 °FPassing clouds.10 mph22%30.09 "HgN/A
2:00 PM66 °FPassing clouds.8 mph22%30.09 "HgN/A
1:30 PM66 °FPassing clouds.10 mph21%30.09 "HgN/A
1:00 PM66 °FPassing clouds.10 mph22%30.09 "HgN/A
12:30 PM64 °FPassing clouds.10 mph22%30.09 "HgN/A
12:00 PM64 °FPassing clouds.10 mph22%30.09 "HgN/A
11:30 AM63 °FPassing clouds.10 mph25%30.09 "HgN/A
11:00 AM63 °FPassing clouds.10 mph27%30.09 "HgN/A
10:30 AM61 °FPassing clouds.10 mph29%30.09 "HgN/A
10:00 AM61 °FPassing clouds.8 mph34%30.09 "HgN/A
9:30 AM61 °FPassing clouds.10 mph36%30.07 "HgN/A
9:00 AM59 °FPassing clouds.10 mph45%30.07 "HgN/A
8:30 AM59 °FSunny.10 mph48%30.07 "Hg10 mi
8:00 AM59 °FPassing clouds.8 mph48%30.04 "HgN/A
7:30 AM55 °FSunny.8 mph59%30.04 "Hg10 mi
7:00 AM55 °FSunny.8 mph59%30.04 "Hg10 mi
6:30 AM54 °FSunny.10 mph63%30.01 "Hg10 mi
6:00 AM52 °FSunny.13 mph67%30.01 "Hg10 mi
5:30 AM50 °FClear.13 mph71%29.98 "Hg10 mi
5:00 AM50 °FClear.13 mph71%29.98 "Hg10 mi
4:30 AM50 °FClear.13 mph71%29.98 "Hg10 mi
4:00 AM52 °FClear.13 mph67%29.98 "Hg10 mi
3:30 AM52 °FClear.10 mph67%29.95 "Hg10 mi
3:00 AM52 °FClear.13 mph67%29.95 "Hg10 mi
2:30 AM54 °FClear.13 mph63%29.95 "Hg10 mi
2:00 AM54 °FClear.13 mph63%29.95 "Hg10 mi
1:30 AM55 °FClear.13 mph59%29.95 "Hg10 mi
1:00 AM55 °FClear.13 mph63%29.95 "Hg10 mi
Weather by CustomWeather, © 2015

See weather overviewHow to use our weather pages